Date_and_time,latitude,longitude,wind_speed,RelWindDirFrom,WindDirFrom,air_pressure,air_temperature,relative_humidity,Temp,platform_speed_wrt_ground,air_pressure_at_mean_sea_level,platform_orientation
2019-12-01 00:00,50.6304533333333,-96.98077,14.0,16.8,4,990.94,-3.2,84,1.12,0.0,1019.21,90.0
2019-12-01 00:10,50.6304516666667,-96.98077,13.7,16.8,4,990.98,-3.3,85,1.12,0.0,1019.26,90.0
2019-12-01 00:20,50.6304516666667,-96.9807733333333,14.5,18.0,3,990.98,-3.4,85,1.13,0.0,1019.26,90.0
2019-12-01 00:30,50.630455,-96.9807666666667,14.9,18.7,3,990.98,-3.5,86,1.12,0.0,1019.26,90.0
2019-12-01 00:40,50.6304566666667,-96.9807616666667,15.4,18.7,4,990.97,-3.6,86,1.12,0.0,1019.25,90.0
2019-12-01 00:50,50.630455,-96.980765,15.5,17.6,5,991.01,-3.7,87,1.13,0.0,1019.31,90.0
2019-12-01 01:00,50.6304533333333,-96.9807633333333,14.9,17.0,7,991.07,-3.8,87,1.13,0.0,1019.38,90.0
2019-12-01 01:10,50.6304533333333,-96.9807616666667,14.4,17.6,7,991.08,-3.9,87,1.11,0.0,1019.40,90.0
2019-12-01 01:20,50.6304533333333,-96.98076,14.1,16.3,7,991.07,-4.1,88,1.11,0.0,1019.41,90.0
2019-12-01 01:30,50.6304533333333,-96.9807616666667,14.1,16.1,7,991.10,-4.2,89,1.11,0.0,1019.44,90.0
2019-12-01 01:40,50.630455,-96.9807633333333,13.8,16.1,10,991.14,-4.4,89,1.13,0.0,1019.49,90.0
2019-12-01 01:50,50.6304566666667,-96.980765,13.5,16.0,11,991.11,-4.5,90,1.14,0.0,1019.47,90.0
2019-12-01 02:00,50.6304566666667,-96.980765,14.5,16.6,15,991.02,-4.5,89,1.14,0.0,1019.38,90.0
2019-12-01 02:10,50.630455,-96.980765,14.4,16.3,17,991.05,-4.5,89,1.15,0.0,1019.42,90.0
2019-12-01 02:20,50.6304566666667,-96.980765,14.4,16.3,17,991.01,-4.6,88,1.16,0.0,1019.39,90.0
2019-12-01 02:30,50.630455,-96.980765,13.9,16.0,14,990.99,-4.8,89,1.17,0.0,1019.38,90.0
2019-12-01 02:40,50.63045,-96.9807566666667,13.1,15.2,19,991.07,-4.9,89,1.17,0.0,1019.47,90.0
2019-12-01 02:50,50.6304516666667,-96.9807716666667,12.7,14.3,17,991.10,-4.9,89,1.17,0.0,1019.52,90.0
2019-12-01 03:00,50.6304616666667,-96.9807683333333,12.7,14.4,18,991.09,-5.0,88,1.19,0.0,1019.51,360.0
2019-12-01 03:10,50.6304583333333,-96.980765,12.6,13.8,17,991.04,-5.1,87,1.18,0.0,1019.47,360.0
2019-12-01 03:20,50.6304583333333,-96.98076,12.8,14.4,15,990.99,-5.2,87,1.18,0.0,1019.44,360.0
2019-12-01 03:30,50.6304583333333,-96.9807633333333,12.6,14.4,13,991.00,-5.3,87,1.19,0.0,1019.46,360.0
2019-12-01 03:40,50.63046,-96.9807616666667,12.4,14.3,12,991.12,-5.4,87,1.18,0.0,1019.59,360.0
2019-12-01 03:50,50.6304583333333,-96.98076,12.9,14.5,10,991.07,-5.4,87,1.15,0.0,1019.55,360.0
2019-12-01 04:00,50.6304583333333,-96.9807616666667,12.0,15.0,8,991.10,-5.5,87,1.13,0.0,1019.58,12.6
2019-12-01 04:10,50.6304566666667,-96.9807633333333,11.7,13.8,6,991.14,-5.6,88,1.13,0.0,1019.64,12.6
2019-12-01 04:20,50.630455,-96.980775,12.3,14.9,7,991.14,-5.7,88,1.13,0.0,1019.65,12.6
2019-12-01 04:30,50.6304533333333,-96.9807633333333,12.7,15.3,10,991.14,-5.8,88,1.13,0.0,1019.66,12.6
2019-12-01 04:40,50.63045,-96.9807616666667,12.8,14.5,9,991.10,-5.8,87,1.12,0.0,1019.63,12.6
2019-12-01 04:50,50.63045,-96.98076,12.6,14.9,7,991.11,-5.9,88,1.12,0.0,1019.64,12.6
2019-12-01 05:00,50.6304483333333,-96.9807583333333,12.7,14.9,7,991.14,-6.0,88,1.13,0.0,1019.69,131.7
2019-12-01 05:10,50.63045,-96.98076,11.8,14.3,6,991.21,-6.0,88,1.12,0.0,1019.76,131.7
2019-12-01 05:20,50.6304483333333,-96.9807633333333,11.8,14.5,8,991.29,-6.1,89,1.12,0.0,1019.85,131.7
2019-12-01 05:30,50.6304316666667,-96.9807433333333,13.3,15.7,7,991.20,-6.2,88,1.12,0.0,1019.77,131.7
2019-12-01 05:40,50.6304466666667,-96.9807683333333,13.4,17.2,7,991.18,-6.2,88,1.11,0.0,1019.75,131.7
2019-12-01 05:50,50.6304483333333,-96.98076,11.8,14.3,6,991.28,-6.4,89,1.10,0.0,1019.87,131.7
2019-12-01 06:00,50.6304466666667,-96.98076,10.9,13.2,1,991.33,-6.7,91,1.09,0.0,1019.95,360.0
2019-12-01 06:10,50.6304466666667,-96.9807583333333,11.5,14.9,360,991.23,-6.9,92,1.08,0.0,1019.86,360.0
2019-12-01 06:20,50.6304466666667,-96.9807583333333,11.4,13.9,357,991.07,-7.0,90,1.08,0.0,1019.71,360.0
2019-12-01 06:30,50.6304483333333,-96.9807583333333,11.5,14.0,357,991.06,-7.1,90,1.08,0.0,1019.70,360.0
2019-12-01 06:40,50.6304483333333,-96.9807566666667,10.6,13.5,354,991.10,-7.3,90,1.08,0.0,1019.76,360.0
2019-12-01 06:50,50.6304483333333,-96.9807583333333,8.5,11.3,348,991.24,-7.6,90,1.10,0.0,1019.92,360.0
2019-12-01 07:00,50.630445,-96.980765,7.8,10.5,345,991.30,-8.0,91,1.13,0.0,1020.01,360.0
2019-12-01 07:10,50.6304433333333,-96.9807633333333,8.1,10.2,344,991.29,-8.2,92,1.18,0.0,1020.01,360.0
2019-12-01 07:20,50.630455,-96.9807566666667,7.8,10.8,344,991.35,-8.4,92,1.14,0.0,1020.09,360.0
2019-12-01 07:30,50.6304483333333,-96.9807533333333,8.4,11.0,347,991.36,-8.5,93,1.12,0.0,1020.11,360.0
2019-12-01 07:40,50.6304483333333,-96.9807416666667,8.5,10.7,346,991.33,-8.6,93,1.11,0.0,1020.09,360.0
2019-12-01 07:50,50.6304516666667,-96.98077,8.9,11.0,347,991.24,-8.7,93,1.10,0.0,1020.03,360.0
2019-12-01 08:00,50.6304516666667,-96.98077,8.9,11.1,348,991.31,-8.8,94,1.09,0.0,1020.11,347.4
2019-12-01 08:10,50.6304516666667,-96.9807716666667,7.4,10.2,345,991.49,-8.8,94,1.08,0.0,1020.30,347.4
2019-12-01 08:20,50.6304516666667,-96.9807683333333,6.4,9.4,341,991.58,-8.9,94,1.08,0.0,1020.41,347.4
2019-12-01 08:30,50.63045,-96.9807666666667,6.8,9.3,336,991.59,-9.1,94,1.08,0.0,1020.44,347.4
2019-12-01 08:40,50.63045,-96.9807666666667,6.6,8.9,334,991.62,-9.3,94,1.08,0.0,1020.50,347.4
2019-12-01 08:50,50.63045,-96.9807666666667,8.1,10.4,337,991.61,-9.4,94,1.08,0.0,1020.51,347.4
2019-12-01 09:00,50.6304416666667,-96.980755,8.1,10.8,338,991.59,-9.5,94,1.06,0.0,1020.51,360.0
2019-12-01 09:10,50.6304466666667,-96.9807616666667,8.7,11.3,338,991.61,-9.5,94,1.06,0.0,1020.54,360.0
2019-12-01 09:20,50.6304466666667,-96.980765,9.2,12.3,340,991.63,-9.6,94,1.07,0.0,1020.57,360.0
2019-12-01 09:30,50.6304483333333,-96.9807683333333,9.2,11.8,341,991.65,-9.6,93,1.06,0.0,1020.60,360.0
2019-12-01 09:40,50.6304416666667,-96.98077,9.5,12.1,343,991.68,-9.7,93,1.05,0.0,1020.64,360.0
2019-12-01 09:50,50.6304633333333,-96.9807916666667,8.1,11.4,341,991.80,-9.8,93,1.06,0.0,1020.77,360.0
2019-12-01 10:00,50.6304566666667,-96.9807833333333,7.3,10.3,340,991.94,-9.9,93,1.07,0.0,1020.93,310.6
2019-12-01 10:10,50.630455,-96.98078,7.1,9.4,341,992.07,-9.9,92,1.07,0.0,1021.06,310.6
2019-12-01 10:20,50.630455,-96.9807783333333,6.3,8.6,341,992.11,-10.1,92,1.07,0.0,1021.13,310.6
2019-12-01 10:30,50.630455,-96.9807766666667,7.8,10.4,344,992.06,-10.2,92,1.06,0.0,1021.09,310.6
2019-12-01 10:40,50.6304383333333,-96.9807716666667,7.0,9.5,344,992.12,-10.3,92,1.06,0.0,1021.16,310.6
2019-12-01 10:50,50.6304416666667,-96.980775,6.9,9.6,342,992.15,-10.4,92,1.05,0.0,1021.21,310.6
2019-12-01 11:00,50.6304416666667,-96.9807733333333,6.4,8.4,339,992.22,-10.5,92,1.05,0.0,1021.28,360.0
2019-12-01 11:10,50.630415,-96.9807433333333,6.5,8.2,335,992.29,-10.6,92,1.06,0.0,1021.36,360.0
2019-12-01 11:20,50.63044,-96.98077,5.8,7.7,332,992.30,-10.8,92,1.07,0.0,1021.38,360.0
2019-12-01 11:30,50.630445,-96.9807666666667,6.3,8.9,331,992.26,-11.0,92,1.07,0.0,1021.36,360.0
2019-12-01 11:40,50.630445,-96.9807633333333,6.6,9.0,326,992.30,-11.2,92,1.07,0.0,1021.42,360.0
2019-12-01 11:50,50.6304433333333,-96.9807633333333,6.9,9.4,328,992.34,-11.2,92,1.07,0.0,1021.47,360.0
2019-12-01 12:00,50.6304433333333,-96.980765,7.5,9.9,330,992.41,-11.2,93,1.06,0.0,1021.55,270.0
2019-12-01 12:10,50.6304383333333,-96.9807933333333,7.2,10.4,325,992.54,-11.2,93,1.05,0.0,1021.69,270.0
2019-12-01 12:20,50.6304216666667,-96.9807983333333,7.7,10.5,324,992.51,-11.4,93,1.05,0.0,1021.67,270.0
2019-12-01 12:30,50.6304333333333,-96.9807883333333,7.5,11.0,321,992.50,-11.5,93,1.05,0.0,1021.68,270.0
2019-12-01 12:40,50.6304416666667,-96.9807766666667,7.2,9.8,323,992.54,-11.6,93,1.05,0.0,1021.73,270.0
2019-12-01 12:50,50.63044,-96.9807733333333,6.8,9.9,322,992.66,-11.7,93,1.06,0.0,1021.86,270.0
2019-12-01 13:00,50.6304383333333,-96.9807666666667,7.6,10.7,325,992.63,-11.7,93,1.06,0.0,1021.84,124.8
2019-12-01 13:10,50.630445,-96.98077,7.1,10.3,322,992.70,-11.7,93,1.06,0.0,1021.92,124.8
2019-12-01 13:20,50.6304466666667,-96.9807733333333,7.3,9.8,322,992.68,-11.7,94,1.05,0.0,1021.91,124.8
2019-12-01 13:30,50.6304483333333,-96.980775,6.5,9.0,320,992.79,-11.7,94,1.05,0.0,1022.03,124.8
2019-12-01 13:40,50.6304483333333,-96.980775,5.7,8.3,315,992.95,-11.6,94,1.04,0.0,1022.20,124.8
2019-12-01 13:50,50.6304633333333,-96.98077,5.2,7.1,317,993.05,-11.6,95,1.03,0.0,1022.30,124.8
2019-12-01 14:00,50.6304333333333,-96.9807833333333,5.4,8.9,315,993.13,-11.6,94,1.02,0.0,1022.38,228.3
2019-12-01 14:10,50.630445,-96.9807883333333,5.2,7.8,317,993.29,-11.6,94,1.03,0.0,1022.55,228.3
2019-12-01 14:20,50.6304516666667,-96.9807733333333,4.8,7.3,321,993.33,-11.4,94,1.03,0.0,1022.60,228.3
2019-12-01 14:30,50.6304516666667,-96.98077,4.9,8.4,323,993.31,-11.2,93,1.02,0.0,1022.56,228.3
2019-12-01 14:40,50.6304483333333,-96.980765,5.4,7.6,317,993.31,-11.0,91,1.02,0.0,1022.55,228.3
2019-12-01 14:50,50.6304466666667,-96.980765,5.2,7.7,318,993.31,-10.7,90,1.02,0.0,1022.54,228.3
2019-12-01 15:00,50.6304466666667,-96.9807666666667,6.4,10.8,323,993.26,-10.4,90,1.01,0.0,1022.47,360.0
2019-12-01 15:10,50.630445,-96.980765,7.7,10.8,322,993.22,-10.3,90,1.00,0.0,1022.42,360.0
2019-12-01 15:20,50.6304433333333,-96.9807833333333,7.8,10.4,324,993.29,-10.1,90,0.99,0.0,1022.49,360.0
2019-12-01 15:30,50.6304466666667,-96.9807733333333,8.3,12.1,329,993.36,-10.0,92,0.99,0.0,1022.56,360.0
2019-12-01 15:40,50.630435,-96.980765,8.4,12.1,332,993.54,-10.3,96,0.99,0.0,1022.75,360.0
2019-12-01 15:50,50.63044,-96.9807783333333,8.1,11.5,333,993.57,-10.1,98,0.99,0.0,1022.77,360.0
2019-12-01 16:00,50.6304416666667,-96.9807766666667,7.8,12.5,340,993.58,-9.8,98,0.99,0.0,1022.76,270.0
2019-12-01 16:10,50.6304433333333,-96.980775,7.7,10.3,346,993.64,-9.6,98,0.99,0.0,1022.80,270.0
2019-12-01 16:20,50.6304416666667,-96.9807733333333,8.0,11.2,352,993.68,-9.3,98,1.00,0.0,1022.81,270.0
2019-12-01 16:30,50.6304433333333,-96.9807733333333,9.2,11.2,353,993.63,-9.2,97,1.00,0.0,1022.74,270.0
2019-12-01 16:40,50.6304416666667,-96.9807733333333,9.4,12.5,356,993.61,-9.1,96,1.00,0.0,1022.70,270.0
2019-12-01 16:50,50.6304433333333,-96.9807733333333,9.1,11.2,1,993.62,-8.9,95,1.01,0.0,1022.69,270.0
2019-12-01 17:00,50.6304433333333,-96.98077,7.8,10.7,360,993.63,-8.8,94,1.01,0.0,1022.68,55.2
2019-12-01 17:10,50.6304433333333,-96.9807683333333,7.1,9.4,6,993.69,-8.7,94,1.01,0.0,1022.73,55.2
2019-12-01 17:20,50.6304433333333,-96.98077,7.7,9.8,4,993.56,-8.7,94,1.01,0.0,1022.59,55.2
2019-12-01 17:30,50.6304566666667,-96.9807633333333,7.7,9.4,12,993.44,-8.7,94,1.02,0.0,1022.49,55.2
2019-12-01 17:40,50.63045,-96.9807633333333,7.3,9.1,6,993.39,-8.8,95,1.02,0.0,1022.43,55.2
2019-12-01 17:50,50.63044,-96.98077,7.7,9.8,12,993.40,-8.8,96,1.02,0.0,1022.42,55.2
2019-12-01 18:00,50.6304416666667,-96.9807633333333,6.4,9.6,354,993.40,-8.9,97,1.03,0.0,1022.41,360.0
2019-12-01 18:10,50.6304433333333,-96.980765,6.2,8.9,8,993.30,-8.8,97,1.04,0.0,1022.29,360.0
2019-12-01 18:20,50.6304433333333,-96.9807616666667,5.9,7.4,13,993.26,-8.8,98,1.03,0.0,1022.24,360.0
2019-12-01 18:30,50.630445,-96.9807633333333,4.6,8.2,360,993.21,-8.6,98,1.02,0.0,1022.17,360.0
2019-12-01 18:40,50.6304533333333,-96.980775,5.1,7.9,350,993.02,-8.5,98,1.02,0.0,1021.96,360.0
2019-12-01 18:50,50.6304516666667,-96.9807716666667,3.8,6.6,309,993.00,-8.7,98,1.02,0.0,1021.94,360.0
2019-12-01 19:00,50.6304233333333,-96.9807583333333,4.8,8.0,328,993.00,-8.5,98,1.02,0.0,1021.93,136.6
2019-12-01 19:10,50.6304283333333,-96.980775,4.1,6.3,339,993.05,-8.3,99,1.03,0.0,1021.97,136.6
2019-12-01 19:20,50.6304483333333,-96.98077,3.2,5.6,336,993.02,-8.1,98,1.03,0.0,1021.93,136.6
2019-12-01 19:30,50.6304466666667,-96.9807716666667,3.2,6.3,324,992.98,-8.0,98,1.03,0.0,1021.89,136.6
2019-12-01 19:40,50.6304466666667,-96.9807716666667,4.1,7.1,266,993.00,-8.0,98,1.02,0.0,1021.91,136.6
2019-12-01 19:50,50.6304466666667,-96.9807666666667,3.2,6.6,303,992.93,-8.0,98,1.05,0.0,1021.84,136.6
2019-12-01 20:00,50.6304483333333,-96.9807666666667,2.2,4.5,339,992.98,-7.9,98,1.08,0.0,1021.89,360.0
2019-12-01 20:10,50.6304466666667,-96.9807666666667,2.6,5.1,284,993.01,-7.8,99,1.07,0.0,1021.91,360.0
2019-12-01 20:20,50.6304483333333,-96.9807683333333,3.1,5.2,249,992.98,-7.6,98,1.06,0.0,1021.86,360.0
2019-12-01 20:30,50.63045,-96.9807683333333,4.2,6.8,276,992.88,-7.4,97,1.05,0.0,1021.74,360.0
2019-12-01 20:40,50.63045,-96.9807683333333,2.0,4.6,297,992.86,-7.4,97,1.03,0.0,1021.72,360.0
2019-12-01 20:50,50.6304483333333,-96.9807683333333,1.9,3.8,233,992.79,-7.5,97,1.02,0.0,1021.65,360.0
2019-12-01 21:00,50.6304483333333,-96.9807683333333,2.5,4.9,288,992.72,-7.2,97,1.02,0.0,1021.55,360.0
2019-12-01 21:10,50.6304483333333,-96.9807583333333,2.7,4.6,251,992.84,-7.2,96,1.02,0.0,1021.66,360.0
2019-12-01 21:20,50.6304466666667,-96.9807666666667,1.9,4.8,240,992.93,-7.1,96,1.02,0.0,1021.74,360.0
2019-12-01 21:30,50.630445,-96.9807666666667,3.5,7.2,253,992.93,-7.0,96,1.02,0.0,1021.74,360.0
2019-12-01 21:40,50.630445,-96.980765,3.4,6.3,254,992.86,-7.0,94,1.03,0.0,1021.67,360.0
2019-12-01 21:50,50.6304466666667,-96.9807666666667,4.3,6.9,251,992.77,-7.0,94,1.02,0.0,1021.57,360.0
2019-12-01 22:00,50.6304483333333,-96.9807666666667,4.3,6.4,243,992.78,-7.0,94,1.02,0.0,1021.58,332.4
2019-12-01 22:10,50.6304483333333,-96.9807666666667,3.9,5.6,228,992.87,-7.0,95,1.03,0.0,1021.65,332.4
2019-12-01 22:20,50.6304466666667,-96.9807683333333,4.0,5.9,235,992.91,-6.9,95,1.03,0.0,1021.68,332.4
2019-12-01 22:30,50.63047,-96.98078,5.0,8.1,230,992.92,-6.9,95,1.04,0.0,1021.69,332.4
2019-12-01 22:40,50.630445,-96.980785,4.5,6.6,230,992.90,-7.1,95,1.03,0.0,1021.69,332.4
2019-12-01 22:50,50.6304466666667,-96.980785,4.8,6.9,211,992.86,-7.2,96,1.02,0.0,1021.64,332.4
2019-12-01 23:00,50.6304483333333,-96.9807816666667,6.7,9.0,215,992.80,-7.2,95,1.02,0.0,1021.57,270.0
2019-12-01 23:10,50.6304266666667,-96.980725,5.7,8.9,209,992.74,-7.1,96,1.02,0.0,1021.50,270.0
2019-12-01 23:20,50.6304483333333,-96.9807733333333,5.0,6.7,205,992.75,-7.2,96,1.02,0.0,1021.51,270.0
2019-12-01 23:30,50.630455,-96.9807816666667,6.6,8.9,202,992.81,-7.2,95,1.02,0.0,1021.57,270.0
2019-12-01 23:40,50.630455,-96.9807766666667,5.8,8.3,198,992.78,-7.3,96,1.02,0.0,1021.55,270.0
